Flag for U.S.A. Weather past 2 weeks in Gloucester, Massachusetts, U.S.A.

Now
4 °F

Clear.


Feels Like: 4 °F
Forecast: 18 / 30 °F
Wind: No wind

Location: Beverly Municipal Airport

Current Time: Mar 1, 2015 at 4:15:18 AM

Latest Report: Mar 1, 2015 at 3:53 AM


Visibility: 10 mi

Pressure: 30.66 "Hg

Humidity: 63%

Dew point: -6 °F

Location of GloucesterLocation

Historic Weather in Gloucester — Graph

°F

Gloucester temperature yesterday

Maximum temperature yesterday: 29 °F (at 3:53 PM)
Minimum temperature yesterday: 6 °F (at 6:53 AM)
Average temperature yesterday: 18 °F

Past Weeks' High & Low Weather Summary

 TemperatureHumidityPressure
High38 °F (Feb 22, 3:53 PM)96% (Feb 22, 11:00 PM)30.72 "Hg (Feb 22, 11:00 PM)
Low-7 °F (Feb 14, 4:53 AM)23% (Feb 27, 3:53 PM)29.30 "Hg (Feb 15, 4:53 AM)
Average17 °F56%30.01 "Hg
* Reported Feb 14 2:53 AM — Mar 1 2:53 AM, Gloucester, Weather by CustomWeather, © 2015

Note: Actual official high and low records may vary slightly from our data, if they occured in-between our weather recording intervals... More about our weather records

Advertising

Gloucester weather history for previous 24 hours

 ConditionsComfort  
Time TempWeatherWind HumidityBarometerVisibility
2:53 AM
Sun, Mar 1
7 °FClear.No wind60%30.67 "Hg10 mi
1:53 AM9 °FClear.No wind55%30.67 "Hg10 mi
12:53 AM15 °FClear.No wind46%30.69 "Hg10 mi
11:53 PM
Sat, Feb 28
18 °FClear.3 mph43%30.68 "Hg10 mi
10:53 PM19 °FClear.5 mph41%30.68 "Hg10 mi
9:53 PM18 °FClear.3 mph41%30.68 "Hg10 mi
8:53 PM22 °FClear.3 mph40%30.68 "Hg10 mi
7:53 PM22 °FClear.3 mph38%30.68 "Hg10 mi
6:53 PM21 °FClear.5 mph40%30.67 "Hg10 mi
5:53 PM25 °FClear.3 mph32%30.66 "Hg10 mi
4:53 PM27 °FSunny.9 mph31%30.65 "Hg10 mi
3:53 PM29 °FSunny.9 mph26%30.66 "Hg10 mi
2:53 PM27 °FSunny.8 mph32%30.67 "Hg10 mi
1:53 PM27 °FSunny.9 mph23%30.68 "Hg10 mi
12:53 PM26 °FSunny.8 mph29%30.69 "Hg10 mi
11:53 AM23 °FSunny.9 mph32%30.71 "Hg10 mi
10:53 AM21 °FSunny.9 mph34%30.72 "Hg10 mi
9:53 AM19 °FSunny.5 mph38%30.72 "Hg10 mi
8:53 AM15 °FSunny.6 mph46%30.72 "Hg10 mi
7:53 AM10 °FSunny.8 mph53%30.71 "Hg10 mi
6:53 AM6 °FSunny.6 mph60%30.69 "Hg10 mi
5:53 AM7 °FClear.7 mph57%30.65 "Hg10 mi
4:53 AM7 °FClear.7 mph57%30.61 "Hg10 mi
Weather by CustomWeather, © 2015

See weather overviewHow to use our weather pages